Regional Weather Roundup
Issued by NWS Newport/Morehead, NC

Home | Current Version | Previous Version | Text Only | Print | Product List | Glossary On
Versions: 1 2 3 4 5 6 7 8 9 10 11 12 13 14 15 16 17 18 19 20 21 22 23 24 25 26 27 28 29 30 31 32 33 34 35 36 37 38 39 40 41 42 43 44 45 46 47 48 49 50
000
ASUS42 KMHX 191026
RWRMHX
WEATHER ROUNDUP FOR EASTERN NORTH CAROLINA
NATIONAL WEATHER SERVICE NEWPORT/MOREHEAD CITY NC
500 AM EST MON FEB 19 2018

NOTE: "FAIR" INDICATES FEW OR NO CLOUDS BELOW 12,000 FEET
WITH NO SIGNIFICANT WEATHER AND/OR OBSTRUCTIONS TO VISIBILITY

NCZ015>017-031-032-045>047-102-103-191100-
NORTH COAST

CITY           SKY/WX    TMP DP  RH WIND       PRES   REMARKS
EDENTON        CLOUDY    49  43  80 E8        30.47S
ELIZABETH CITY CLOUDY    46  42  86 E9        30.48R
KITTY HAWK     CLOUDY    46  46 100 E5        30.46S
MANTEO         CLOUDY    48  44  86 E12       30.47S

$$

NCZ045>047-081-094-103-104-191100-
CENTRAL COAST

CITY           SKY/WX    TMP DP  RH WIND       PRES   REMARKS
FRISCO         CLOUDY    51  47  86 NE8       30.44S

$$

NCZ095-097-098-100-101-191100-
SOUTHERN COAST

CITY           SKY/WX    TMP DP  RH WIND       PRES   REMARKS
BEAUFORT       CLOUDY    51  47  86 VRB6      30.42S
CEDAR ISLAND   NOT AVBL
JACKSONVILLE   CLOUDY    51  46  83 E10       30.41R
PINEY ISLAND   NOT AVBL
WILMINGTON     CLOUDY    52  48  86 E9        30.39F


$$

NCZ011>013-027>030-043-044-078>080-089-090>093-098-191100-
COASTAL PLAIN

CITY           SKY/WX    TMP DP  RH WIND       PRES   REMARKS
AHOSKIE        CLOUDY    42  38  84 CALM      30.46S
CLINTON        MOCLDY    45  45 100 N3        30.43R
ELIZABETHTOWN  NOT AVBL
GOLDSBORO      CLOUDY    43  41  93 NE5       30.42R
GREENVILLE     DRIZZLE   43  41  93 NE3       30.45R
HAVELOCK       NOT AVBL
KENANSVILLE    LGT RAIN  48  41  76 NE3       30.43R
KINSTON        LGT RAIN  46  41  84 NE6       30.45R
NEW BERN       CLOUDY    48  43  82 E7        30.44R
RICHLANDS      CLOUDY    48  44  86 NE7       30.42R
ROCKY MOUNT    LGT RAIN  41  39  93 NE5       30.45S FOG
WASHINGTON     CLOUDY    46  40  78 E7        30.45S
WHITEVILLE     CLOUDY    48  46  93 CALM      30.39R

$$

AMZ130-135-150-152-154-156-158-170-250-252-270-ANZ085-086-088-633-658-670-191100-
MARINE OBSERVATIONS

STATION/POSITION TIME  TEMP    WIND        PRES    WAVE   SWELL
                       AIR SEA DIR/SP/G            HT/PER HT/PER
                 (UTC) (F)     (DEG/KT/KT) (MB)    (FT/S) (FT/S)
CHESAPEAKE LIGHT NOT AVBL
64 E VA BEACH    0950   50 49   90/ 12/ 14 1032.6    3/ 9   2/ 9
DUCK             1000   46 44   80/  8/ 11 1031.4
2 E DUCK         1000      44                N/A     3/ 4
OREGON INLET     1000   47 47   50/  8/ 11 1031.5
13E OREGON INLT  0948      46                N/A     4/ 9   3/ 9
HATTERAS CG      1000   51 56   60/  7/ 12 1030.8
DIAMOND BUOY     1010   64     120/ 14/ 17 1031.1
CAPE LOOKOUT     1000          100/ 10/ 11 1030.2
BEAUFORT LAB     1000   51 54   30/  8/ 11 1030.2
30 SE NEW RVR IN 0908   63 63  130/ 12/ 16 1028.9
30 SE NEW RVR IN 1000      63                N/A     5/ 5   2/11
27 SE WRIGHTSVLE 0908   65 67  120/ 16/ 23 1028.5
5 SE WRIGHTSVLE  0908   53 53   70/ 14/ 19 1028.5
225 S CAPE HAT   0950   70 72   70/ 16/ 19 1028.6    6/ 8   3/ 8
41 SE CHARLESTON 1010   70     130/ 12/ 14 1026.4

$$



USA.gov is the U.S. government's official web portal to all federal, state and local government web resources and services.